2024-04-13 19:30:00,5.283333333333333
2024-04-13 19:45:00,5.281919642857143
2024-04-13 20:00:00,5.271949404761905
2024-04-13 20:15:00,5.2728174603174605
2024-04-13 20:30:00,5.274950396825397
2024-04-13 20:45:00,5.274925595238095
2024-04-13 21:00:00,5.276810515873016
2024-04-13 21:15:00,5.277604166666666
2024-04-13 21:30:00,5.279637896825396
2024-04-13 21:45:00,5.282614087301587
2024-04-13 22:00:00,5.284672619047619
2024-04-13 22:15:00,5.286259920634921
2024-04-13 22:30:00,5.285367063492064
2024-04-13 22:45:00,5.285739087301588
2024-04-13 23:00:00,5.284002976190476
2024-04-13 23:15:00,5.284250992063492
2024-04-13 23:30:00,5.2835069444444445
2024-04-13 23:45:00,5.282390873015872
2024-04-14 00:00:00,5.280431547619047
2024-04-14 00:15:00,5.2632192460317455
2024-04-14 00:30:00,5.24548611111111
2024-04-14 00:45:00,5.244890873015872
2024-04-14 01:00:00,5.2421130952380945
2024-04-14 01:15:00,5.244469246031745
2024-04-14 01:30:00,5.2407242063492046
2024-04-14 01:45:00,5.237822420634919
2024-04-14 02:00:00,5.236235119047618
2024-04-14 02:15:00,5.235962301587301
2024-04-14 02:30:00,5.234350198412697
2024-04-14 02:45:00,5.2114087301587295
2024-04-14 03:00:00,5.211235119047619
2024-04-14 03:15:00,5.212127976190476
2024-04-14 03:30:00,5.215674603174603
2024-04-14 03:45:00,5.2185267857142845
2024-04-14 04:00:00,5.217286706349205
2024-04-14 04:15:00,5.218650793650792
2024-04-14 04:30:00,5.217311507936507
2024-04-14 04:45:00,5.2211309523809515
2024-04-14 05:00:00,5.22532242063492
2024-04-14 05:15:00,5.231299603174602
2024-04-14 05:30:00,5.24174107142857
2024-04-14 05:45:00,5.247891865079363
2024-04-14 06:00:00,5.254166666666665
2024-04-14 06:15:00,5.256721230158728
2024-04-14 06:30:00,5.256249999999999
2024-04-14 06:45:00,5.2603174603174585
2024-04-14 07:00:00,5.2660714285714265
2024-04-14 07:15:00,5.27127976190476
2024-04-14 07:30:00,5.275297619047618
2024-04-14 07:45:00,5.276289682539682
2024-04-14 08:00:00,5.275347222222221
2024-04-14 08:15:00,5.27517361111111
2024-04-14 08:30:00,5.273958333333333
2024-04-14 08:45:00,5.2722470238095225
2024-04-14 09:00:00,5.2726686507936495
2024-04-14 09:15:00,5.262723214285713
2024-04-14 09:30:00,5.24407242063492
2024-04-14 09:45:00,5.2381200396825385
2024-04-14 10:00:00,5.23454861111111
2024-04-14 10:15:00,5.234747023809523
2024-04-14 10:30:00,5.236359126984126
2024-04-14 10:45:00,5.237946428571428
2024-04-14 11:00:00,5.23844246031746
2024-04-14 11:15:00,5.239459325396824
2024-04-14 11:30:00,5.245461309523809
2024-04-14 11:45:00,5.250992063492063
2024-04-14 12:00:00,5.256398809523809
2024-04-14 12:15:00,5.266443452380952
2024-04-14 12:30:00,5.275173611111111
2024-04-14 12:45:00,5.275719246031746
2024-04-14 13:00:00,5.275545634920634
2024-04-14 13:15:00,5.278348214285714
2024-04-14 13:30:00,5.278546626984126
2024-04-14 13:45:00,5.278199404761905
2024-04-14 14:00:00,5.278745039682539
2024-04-14 14:15:00,5.283730158730158
2024-04-14 14:30:00,5.28844246031746
2024-04-14 14:45:00,5.289930555555555
2024-04-14 15:00:00,5.293328373015872
2024-04-14 15:15:00,5.293080357142857
2024-04-14 15:30:00,5.297792658730159
2024-04-14 15:45:00,5.303050595238095
2024-04-14 16:00:00,5.302331349206349
2024-04-14 16:15:00,5.30203373015873
2024-04-14 16:30:00,5.291542658730158
2024-04-14 16:45:00,5.289781746031745
2024-04-14 17:00:00,5.289062499999998
2024-04-14 17:15:00,5.28720238095238
2024-04-14 17:30:00,5.282415674603174
2024-04-14 17:45:00,5.28142361111111
2024-04-14 18:00:00,5.280233134920634
2024-04-14 18:15:00,5.27735615079365
2024-04-14 18:30:00,5.272842261904761
2024-04-14 18:45:00,5.26765873015873
2024-04-14 19:00:00,5.256820436507936
2024-04-14 19:15:00,5.25642361111111
2024-04-14 19:30:00,5.257068452380952
2024-04-14 19:45:00,5.258978174603174
2024-04-14 20:00:00,5.25875496031746
2024-04-14 20:15:00,5.259399801587302
2024-04-14 20:30:00,5.2588293650793645
2024-04-14 20:45:00,5.256746031746031
2024-04-14 21:00:00,5.253373015873015
2024-04-14 21:15:00,5.2495039682539675
2024-04-14 21:30:00,5.24454365079365
2024-04-14 21:45:00,5.240699404761904
2024-04-14 22:00:00,5.235664682539682
2024-04-14 22:15:00,5.2319692460317455
2024-04-14 22:30:00,5.230927579365079
2024-04-14 22:45:00,5.230357142857143
2024-04-14 23:00:00,5.229563492063492
2024-04-14 23:15:00,5.2281249999999995
2024-04-14 23:30:00,5.227604166666667
2024-04-14 23:45:00,5.228050595238095
2024-04-15 00:00:00,5.231919642857143
2024-04-15 00:15:00,5.234771825396825
2024-04-15 00:30:00,5.237549603174603
2024-04-15 00:45:00,5.236210317460317
2024-04-15 01:00:00,5.242708333333333
2024-04-15 01:15:00,5.252480158730158
2024-04-15 01:30:00,5.2713045634920634
2024-04-15 01:45:00,5.291418650793651
2024-04-15 02:00:00,5.303224206349206
2024-04-15 02:15:00,5.309598214285715
2024-04-15 02:30:00,5.316220238095238
2024-04-15 02:45:00,5.317881944444444
2024-04-15 03:00:00,5.317981150793652
2024-04-15 03:15:00,5.311334325396826
2024-04-15 03:30:00,5.311036706349207
2024-04-15 03:45:00,5.314682539682541
2024-04-15 04:00:00,5.294171626984128
2024-04-15 04:15:00,5.2844742063492065
2024-04-15 04:30:00,5.284895833333334
2024-04-15 04:45:00,5.288492063492064
2024-04-15 05:00:00,5.2961309523809526
2024-04-15 05:15:00,5.296899801587301
2024-04-15 05:30:00,5.291840277777778
2024-04-15 05:45:00,5.289409722222222
2024-04-15 06:00:00,5.282316468253968
2024-04-15 06:15:00,5.280084325396825
2024-04-15 06:30:00,5.280431547619047
2024-04-15 06:45:00,5.280381944444444
2024-04-15 07:00:00,5.278273809523808
2024-04-15 07:15:00,5.275545634920634
2024-04-15 07:30:00,5.27423115079365
2024-04-15 07:45:00,5.252728174603174
2024-04-15 08:00:00,5.254960317460317
2024-04-15 08:15:00,5.2564980158730155
2024-04-15 08:30:00,5.256944444444445
2024-04-15 08:45:00,5.2585565476190474
2024-04-15 09:00:00,5.25969742063492
2024-04-15 09:15:00,5.266865079365079
2024-04-15 09:30:00,5.283854166666666
2024-04-15 09:45:00,5.294270833333333
2024-04-15 10:00:00,5.300446428571428
2024-04-15 10:15:00,5.301959325396825
2024-04-15 10:30:00,5.304017857142857
2024-04-15 10:45:00,5.306969246031746
2024-04-15 11:00:00,5.309474206349206
2024-04-15 11:15:00,5.310342261904761
2024-04-15 11:30:00,5.309102182539682
2024-04-15 11:45:00,5.312425595238095
2024-04-15 12:00:00,5.316666666666667
2024-04-15 12:15:00,5.336780753968254
2024-04-15 12:30:00,5.343377976190476
2024-04-15 12:45:00,5.342460317460318
2024-04-15 13:00:00,5.343303571428571
2024-04-15 13:15:00,5.346130952380952
2024-04-15 13:30:00,5.346230158730159
2024-04-15 13:45:00,5.347966269841271
2024-04-15 14:00:00,5.35044642857143
2024-04-15 14:15:00,5.34888392857143
2024-04-15 14:30:00,5.349677579365081
2024-04-15 14:45:00,5.34794146825397
2024-04-15 15:00:00,5.3499751984127
2024-04-15 15:15:00,5.370808531746034
2024-04-15 15:30:00,5.365575396825399
2024-04-15 15:45:00,5.366294642857146
2024-04-15 16:00:00,5.36574900793651
2024-04-15 16:15:00,5.368824404761908
2024-04-15 16:30:00,5.367212301587305
2024-04-15 16:45:00,5.368328373015876
2024-04-15 17:00:00,5.367311507936511
2024-04-15 17:15:00,5.364608134920638
2024-04-15 17:30:00,5.362028769841272
2024-04-15 17:45:00,5.360515873015876
2024-04-15 18:00:00,5.358308531746035
2024-04-15 18:15:00,5.367509920634923
2024-04-15 18:30:00,5.367336309523812
2024-04-15 18:45:00,5.366604662698415
2024-04-15 19:00:00,5.366951884920637
2024-04-15 19:15:00,5.367695932539685
2024-04-15 19:30:00,5.365488591269844
2024-04-15 19:45:00,5.362562003968257
2024-04-15 20:00:00,5.359585813492067
2024-04-15 20:15:00,5.357155257936511
2024-04-15 20:30:00,5.349069940476194
2024-04-15 20:45:00,5.34386160714286
2024-04-15 21:00:00,5.332353670634924
2024-04-15 21:15:00,5.316282242063496
2024-04-15 21:30:00,5.311371527777782
2024-04-15 21:45:00,5.304972718253972
2024-04-15 22:00:00,5.282378472222226
2024-04-15 22:15:00,5.275582837301591
2024-04-15 22:30:00,5.270746527777781
2024-04-15 22:45:00,5.26511656746032
2024-04-15 23:00:00,5.260032242063495
2024-04-15 23:15:00,5.252715773809527
2024-04-15 23:30:00,5.2459449404761935
2024-04-15 23:45:00,5.239000496031749
2024-04-16 00:00:00,5.2354042658730195
2024-04-16 00:15:00,5.23448660714286
2024-04-16 00:30:00,5.231336805555559
2024-04-16 00:45:00,5.227492559523813
2024-04-16 01:00:00,5.226128472222225
2024-04-16 01:15:00,5.224590773809527
2024-04-16 01:30:00,5.225756448412701
2024-04-16 01:45:00,5.227740575396829
2024-04-16 02:00:00,5.228112599206352
2024-04-16 02:15:00,5.228484623015876
2024-04-16 02:30:00,5.22917906746032
2024-04-16 02:45:00,5.2279885912698445
2024-04-16 03:00:00,5.229402281746035
2024-04-16 03:15:00,5.227492559523813
2024-04-16 03:30:00,5.232056051587305
2024-04-16 03:45:00,5.236594742063495
2024-04-16 04:00:00,5.242075892857146
2024-04-16 04:15:00,5.243092757936511
2024-04-16 04:30:00,5.2441592261904795
2024-04-16 04:45:00,5.244779265873019
2024-04-16 05:00:00,5.243018353174607
2024-04-16 05:15:00,5.243638392857146
2024-04-16 05:30:00,5.248499503968257
2024-04-16 05:45:00,5.249665178571432
2024-04-16 06:00:00,5.252318948412701
2024-04-16 06:15:00,5.260156250000002
2024-04-16 06:30:00,5.261941964285717
2024-04-16 06:45:00,5.264620535714289
2024-04-16 07:00:00,5.26715029761905
2024-04-16 07:15:00,5.267100694444447
2024-04-16 07:30:00,5.2695312500000036
2024-04-16 07:45:00,5.273053075396829
2024-04-16 08:00:00,5.276946924603179
2024-04-16 08:15:00,5.278658234126988
2024-04-16 08:30:00,5.278484623015877
2024-04-16 08:45:00,5.277566964285718
2024-04-16 09:00:00,5.279402281746035
2024-04-16 09:15:00,5.279600694444447
2024-04-16 09:30:00,5.277790178571432
2024-04-16 09:45:00,5.2769221230158765
2024-04-16 10:00:00,5.276475694444447
2024-04-16 10:15:00,5.2791046626984155
2024-04-16 10:30:00,5.281287202380955
2024-04-16 10:45:00,5.283841765873019
2024-04-16 11:00:00,5.286272321428574
2024-04-16 11:15:00,5.287562003968256
2024-04-16 11:30:00,5.290935019841272
2024-04-16 11:45:00,5.292919146825398
2024-04-16 12:00:00,5.293638392857144
2024-04-16 12:15:00,5.297408234126985
2024-04-16 12:30:00,5.298201884920636
2024-04-16 12:45:00,5.298697916666667
2024-04-16 13:00:00,5.299169146825397
2024-04-16 13:15:00,5.303013392857143
2024-04-16 13:30:00,5.305394345238096
2024-04-16 13:45:00,5.306584821428572
2024-04-16 14:00:00,5.308544146825398
2024-04-16 14:15:00,5.31075148809524
2024-04-16 14:30:00,5.312388392857144
2024-04-16 14:45:00,5.3145709325396835
2024-04-16 15:00:00,5.317819940476191
2024-04-16 15:15:00,5.319456845238096
2024-04-16 15:30:00,5.3197792658730165
2024-04-16 15:45:00,5.32044890873016
2024-04-16 16:00:00,5.32357390873016
2024-04-16 16:15:00,5.32717013888889
2024-04-16 16:30:00,5.327889384920637
2024-04-16 16:45:00,5.328955853174604
2024-04-16 17:00:00,5.329749503968255
2024-04-16 17:15:00,5.332353670634922
2024-04-16 17:30:00,5.334139384920636
2024-04-16 17:45:00,5.334635416666668
2024-04-16 18:00:00,5.335081845238096
2024-04-16 18:15:00,5.337586805555556
2024-04-16 18:30:00,5.338082837301588
2024-04-16 18:45:00,5.3362227182539685
2024-04-16 19:00:00,5.335379464285715
2024-04-16 19:15:00,5.3374627976190485
2024-04-16 19:30:00,5.3385540674603185
2024-04-16 19:45:00,5.336272321428573
2024-04-16 20:00:00,5.336495535714287
2024-04-16 20:15:00,5.335429067460319
2024-04-16 20:30:00,5.333444940476192
2024-04-16 20:45:00,5.330468750000001
2024-04-16 21:00:00,5.3314360119047635
2024-04-16 21:15:00,5.331609623015875
2024-04-16 21:30:00,5.329352678571431
2024-04-16 21:45:00,5.3254340277777805
2024-04-16 22:00:00,5.324441964285717
2024-04-16 22:15:00,5.3220114087301615
2024-04-16 22:30:00,5.3183159722222255
2024-04-16 22:45:00,5.31152033730159
2024-04-16 23:00:00,5.302194940476194
2024-04-16 23:15:00,5.280915178571432
2024-04-16 23:30:00,5.254724702380956
2024-04-16 23:45:00,5.247284226190479
2024-04-17 00:00:00,5.248301091269845
2024-04-17 00:15:00,5.2504588293650825
2024-04-17 00:30:00,5.249541170634923
2024-04-17 00:45:00,5.250508432539685
2024-04-17 01:00:00,5.249169146825399
2024-04-17 01:15:00,5.250012400793653
2024-04-17 01:30:00,5.248325892857145
2024-04-17 01:45:00,5.254848710317463
2024-04-17 02:00:00,5.257279265873017
2024-04-17 02:15:00,5.263653273809526
2024-04-17 02:30:00,5.266207837301589
2024-04-17 02:45:00,5.25871775793651
2024-04-17 03:00:00,5.246044146825399
2024-04-17 03:15:00,5.244233630952383
2024-04-17 03:30:00,5.2448288690476215
2024-04-17 03:45:00,5.243911210317462
2024-04-17 04:00:00,5.241406250000002
2024-04-17 04:15:00,5.2409846230158745
2024-04-17 04:30:00,5.241133432539685
2024-04-17 04:45:00,5.24356398809524
2024-04-17 05:00:00,5.246812996031748
2024-04-17 05:15:00,5.247854662698414
2024-04-17 05:30:00,5.247209821428573
2024-04-17 05:45:00,5.2468625992063505
2024-04-17 06:00:00,5.25217013888889
2024-04-17 06:15:00,5.253683035714286
2024-04-17 06:30:00,5.253087797619048
2024-04-17 06:45:00,5.252542162698413
2024-04-17 07:00:00,5.250235615079365
2024-04-17 07:15:00,5.249962797619047
2024-04-17 07:30:00,5.249516369047619
2024-04-17 07:45:00,5.252219742063492
2024-04-17 08:00:00,5.250186011904761
2024-04-17 08:15:00,5.2510788690476184
2024-04-17 08:30:00,5.245076884920634
2024-04-17 08:45:00,5.242323908730158
2024-04-17 09:00:00,5.238851686507935
2024-04-17 09:15:00,5.237189980158729
2024-04-17 09:30:00,5.23813244047619
2024-04-17 09:45:00,5.239322916666666
2024-04-17 10:00:00,5.234412202380952
2024-04-17 10:15:00,5.236247519841269
2024-04-17 10:30:00,5.237934027777777
2024-04-17 10:45:00,5.239223710317459
2024-04-17 11:00:00,5.239719742063492
2024-04-17 11:15:00,5.239174107142857
2024-04-17 11:30:00,5.238504464285713
2024-04-17 11:45:00,5.238826884920634
2024-04-17 12:00:00,5.238529265873015
2024-04-17 12:15:00,5.2332713293650786
2024-04-17 12:30:00,5.22999751984127
2024-04-17 12:45:00,5.227690972222222
2024-04-17 13:00:00,5.226128472222221
2024-04-17 13:15:00,5.22501240079365
2024-04-17 13:30:00,5.222929067460317
2024-04-17 13:45:00,5.214843749999999
2024-04-17 14:00:00,5.210255456349206
2024-04-17 14:15:00,5.210404265873015
2024-04-17 14:30:00,5.210429067460317
2024-04-17 14:45:00,5.210602678571428
2024-04-17 15:00:00,5.208940972222221
2024-04-17 15:15:00,5.205964781746031
2024-04-17 15:30:00,5.2054439484126975
2024-04-17 15:45:00,5.202616567460316
2024-04-17 16:00:00,5.18783482142857
2024-04-17 16:15:00,5.167299107142855
2024-04-17 16:30:00,5.1608754960317444
2024-04-17 16:45:00,5.153856646825395
2024-04-17 17:00:00,5.149417162698411
2024-04-17 17:15:00,5.151376488095236
2024-04-17 17:30:00,5.151165674603173
2024-04-17 17:45:00,5.150099206349205
2024-04-17 18:00:00,5.149330357142856
2024-04-17 18:30:00,5.148908730158729
2024-04-17 19:00:00,5.145833333333332
2024-04-17 19:15:00,5.142633928571427
2024-04-17 19:30:00,5.141741071428569
2024-04-17 19:45:00,5.14002976190476
2024-04-17 20:00:00,5.137127976190475
2024-04-17 20:15:00,5.133333333333331
2024-04-17 20:30:00,5.13035714285714
2024-04-17 20:45:00,5.12222222222222
2024-04-17 21:00:00,5.109300595238093
2024-04-17 21:15:00,5.106051587301585
2024-04-17 21:30:00,5.090153769841267
2024-04-17 21:45:00,5.08472222222222
2024-04-17 22:00:00,5.0824156746031734
2024-04-17 22:15:00,5.082738095238094
2024-04-17 22:30:00,5.0762400793650775
2024-04-17 22:45:00,5.07361111111111
2024-04-17 23:00:00,5.07127976190476
2024-04-17 23:15:00,5.071230158730157
2024-04-17 23:30:00,5.064781746031744
2024-04-17 23:45:00,5.061309523809522
2024-04-18 00:00:00,5.057490079365077
2024-04-18 00:15:00,5.05518353174603
2024-04-18 00:30:00,5.050545634920633
2024-04-18 00:45:00,5.044890873015872
2024-04-18 01:00:00,5.0396577380952365
2024-04-18 01:15:00,5.034002976190474
2024-04-18 01:30:00,5.00503472222222
2024-04-18 01:45:00,4.987772817460315
2024-04-18 02:00:00,4.976686507936505
2024-04-18 02:15:00,4.9704117063492035
2024-04-18 02:30:00,4.960838293650791
2024-04-18 02:45:00,4.956349206349204
2024-04-18 03:00:00,4.95347222222222
2024-04-18 03:15:00,4.949677579365077
2024-04-18 03:30:00,4.931820436507935
2024-04-18 03:45:00,4.931870039682538
2024-04-18 04:00:00,4.9375248015872995
2024-04-18 04:15:00,4.945585317460315
2024-04-18 04:30:00,4.949603174603173
2024-04-18 04:45:00,4.953769841269839
2024-04-18 05:00:00,4.956795634920632
2024-04-18 05:15:00,4.959474206349204
2024-04-18 05:30:00,4.961359126984125
2024-04-18 05:45:00,4.965600198412696
2024-04-18 06:00:00,4.966493055555553
2024-04-18 06:15:00,4.965848214285712
2024-04-18 06:30:00,4.965277777777776
2024-04-18 06:45:00,4.965674603174601
2024-04-18 07:00:00,4.965327380952378
2024-04-18 07:15:00,4.965699404761902
2024-04-18 07:30:00,4.966319444444442
2024-04-18 07:45:00,4.96909722222222
2024-04-18 08:00:00,4.9691964285714265
2024-04-18 08:15:00,4.9691964285714265
2024-04-18 08:30:00,4.969618055555554
2024-04-18 08:45:00,4.962227182539681
2024-04-18 09:00:00,4.952033730158728
2024-04-18 09:15:00,4.95267857142857
2024-04-18 09:30:00,4.950074404761903
2024-04-18 09:45:00,4.947718253968252
2024-04-18 10:00:00,4.944444444444443
2024-04-18 10:15:00,4.94050099206349
2024-04-18 10:30:00,4.933978174603173
2024-04-18 10:45:00,4.930877976190474
2024-04-18 11:00:00,4.927430555555553
2024-04-18 11:15:00,4.9283482142857125
2024-04-18 11:30:00,4.921825396825395
2024-04-18 11:45:00,4.907862103174601
2024-04-18 12:00:00,4.889484126984125
2024-04-18 12:15:00,4.87956349206349
2024-04-18 12:30:00,4.8752976190476165
2024-04-18 12:45:00,4.872594246031743
2024-04-18 13:00:00,4.871701388888886
2024-04-18 13:15:00,4.875496031746029
2024-04-18 13:30:00,4.876537698412695
2024-04-18 13:45:00,4.8774801587301555
2024-04-18 14:00:00,4.876165674603171
2024-04-18 14:15:00,4.859052579365076
2024-04-18 14:30:00,4.842584325396822
2024-04-18 14:45:00,4.8336309523809495
2024-04-18 15:00:00,4.839980158730156
2024-04-18 15:15:00,4.8484623015873
2024-04-18 15:30:00,4.855307539682538
2024-04-18 15:45:00,4.859449404761902
2024-04-18 16:00:00,4.859995039682538
2024-04-18 16:15:00,4.859424603174601
2024-04-18 16:30:00,4.857192460317458
2024-04-18 16:45:00,4.854439484126982
2024-04-18 17:00:00,4.852132936507935
2024-04-18 17:15:00,4.84704861111111
2024-04-18 17:30:00,4.83876488095238
2024-04-18 17:45:00,4.831051587301586
2024-04-18 18:00:00,4.823437499999999
2024-04-18 18:15:00,4.820734126984125
2024-04-18 18:30:00,4.819593253968252
2024-04-18 18:45:00,4.817584325396823
2024-04-18 19:00:00,4.810540674603172
2024-04-18 19:15:00,4.8081349206349175
2024-04-18 19:30:00,4.806622023809521
2024-04-18 19:45:00,4.806324404761902
2024-04-18 20:00:00,4.816195436507934
2024-04-18 20:15:00,4.815228174603172
2024-04-18 20:30:00,4.808754960317458
2024-04-18 20:45:00,4.80409226190476
2024-04-18 21:00:00,4.800868055555553
2024-04-18 21:15:00,4.796701388888887
2024-04-18 21:30:00,4.796626984126982
2024-04-18 21:45:00,4.797817460317458
2024-04-18 22:00:00,4.7906498015873
2024-04-18 22:15:00,4.787921626984125
2024-04-18 22:30:00,4.786557539682538
2024-04-18 22:45:00,4.785143849206348
2024-04-18 23:00:00,4.783407738095237
2024-04-18 23:15:00,4.785714285714284
2024-04-18 23:30:00,4.787624007936506
2024-04-18 23:45:00,4.7897817460317444
2024-04-19 00:00:00,4.791418650793649
2024-04-19 00:15:00,4.790302579365077
2024-04-19 00:30:00,4.791096230158728
2024-04-19 00:45:00,4.794754464285712
2024-04-19 01:00:00,4.796812996031744
2024-04-19 01:15:00,4.798040674603173
2024-04-19 01:30:00,4.798263888888887
2024-04-19 01:45:00,4.799206349206348
2024-04-19 02:00:00,4.800570436507935
2024-04-19 02:15:00,4.800843253968251
2024-04-19 02:30:00,4.802083333333331
2024-04-19 02:45:00,4.804203869047616
2024-04-19 03:00:00,4.806560019841267
2024-04-19 03:15:00,4.812214781746029
2024-04-19 03:30:00,4.815562996031742
2024-04-19 03:45:00,4.8189484126984095
2024-04-19 04:00:00,4.8101934523809495
2024-04-19 04:15:00,4.8112847222222195
2024-04-19 04:30:00,4.80519593253968
2024-04-19 04:45:00,4.807961309523807
2024-04-19 05:00:00,4.8093998015873
2024-04-19 05:15:00,4.8099206349206325
2024-04-19 05:30:00,4.810019841269839
2024-04-19 05:45:00,4.809771825396823
2024-04-19 06:00:00,4.8118303571428545
2024-04-19 06:15:00,4.81706349206349
2024-04-19 06:30:00,4.825706845238092
2024-04-19 06:45:00,4.831746031746029
2024-04-19 07:00:00,4.835553075396823
2024-04-19 07:15:00,4.837735615079363
2024-04-19 07:30:00,4.8401413690476165
2024-04-19 07:45:00,4.844642857142855
2024-04-19 08:00:00,4.84660218253968
2024-04-19 08:15:00,4.851116071428569
2024-04-19 08:30:00,4.8578373015873
2024-04-19 08:45:00,4.864496527777776
2024-04-19 09:00:00,4.869704861111109
2024-04-19 09:15:00,4.874268353174601
2024-04-19 09:30:00,4.87783978174603
2024-04-19 09:45:00,4.8820436507936495
2024-04-19 10:00:00,4.8855282738095225
2024-04-19 10:15:00,4.889322916666665
2024-04-19 10:30:00,4.889508928571427
2024-04-19 10:45:00,4.89032738095238
2024-04-19 11:00:00,4.890500992063491
2024-04-19 11:15:00,4.890624999999999
2024-04-19 11:30:00,4.884399801587301
2024-04-19 11:45:00,4.878050595238094
2024-04-19 12:00:00,4.87673611111111
2024-04-19 12:15:00,4.876091269841268
2024-04-19 12:30:00,4.876016865079363
2024-04-19 12:45:00,4.877455357142855
2024-04-19 13:00:00,4.880084325396824
2024-04-19 13:15:00,4.881820436507935
2024-04-19 13:30:00,4.884598214285712
2024-04-19 13:45:00,4.886309523809521
2024-04-19 14:00:00,4.888678075396823
2024-04-19 14:15:00,4.895014880952378
2024-04-19 14:30:00,4.891418650793649
2024-04-19 14:45:00,4.885416666666664
2024-04-19 15:00:00,4.885739087301586
2024-04-19 15:15:00,4.88816964285714
2024-04-19 15:30:00,4.89002976190476
2024-04-19 15:45:00,4.893650793650791
2024-04-19 16:00:00,4.897643849206347
2024-04-19 16:15:00,4.903918650793649
2024-04-19 16:30:00,4.908680555555554
2024-04-19 16:45:00,4.911582341269839
2024-04-19 17:00:00,4.91455853174603
2024-04-19 17:15:00,4.920610119047617
2024-04-19 17:30:00,4.925124007936506
2024-04-19 17:45:00,4.930555555555553
2024-04-19 18:00:00,4.934623015873013
2024-04-19 18:15:00,4.940538194444442
2024-04-19 18:30:00,4.9452752976190455
2024-04-19 18:45:00,4.947247023809521
2024-04-19 19:00:00,4.9497271825396805
2024-04-19 19:15:00,4.949293154761903
2024-04-19 19:30:00,4.952046130952379
2024-04-19 19:45:00,4.952951388888887
2024-04-19 20:00:00,4.954662698412697
2024-04-19 20:15:00,4.9557787698412685
2024-04-19 20:30:00,4.9562748015873
2024-04-19 20:45:00,4.958606150793649
2024-04-19 21:00:00,4.960739087301586
2024-04-19 21:15:00,4.9625248015873
2024-04-19 21:30:00,4.9622271825396815
2024-04-19 21:45:00,4.959623015873015
2024-04-19 22:00:00,4.9559275793650786
2024-04-19 22:15:00,4.951140873015872
2024-04-19 22:30:00,4.954662698412697
2024-04-19 22:45:00,4.955977182539682
2024-04-19 23:00:00,4.960119047619047
2024-04-19 23:15:00,4.964260912698411
2024-04-19 23:30:00,4.966294642857142
2024-04-19 23:45:00,4.965972222222222
2024-04-20 00:00:00,4.966443452380952
2024-04-20 00:30:00,4.988640873015873
2024-04-20 01:15:00,5.005319940476191
2024-04-20 01:30:00,5.011607142857143
2024-04-20 01:45:00,5.018824404761905
2024-04-20 02:45:00,5.019382440476191
2024-04-20 03:00:00,5.018737599206349
2024-04-20 04:00:00,5.024342757936507
2024-04-20 04:45:00,5.027194940476191
2024-04-20 06:45:00,5.0252108134920634
2024-04-20 09:30:00,5.042323908730158
2024-04-20 09:45:00,5.039719742063492
2024-04-20 10:15:00,5.038479662698412
2024-04-20 11:30:00,5.03562748015873
